Regional Weather Roundup
Issued by NWS

Home | Current Version | Previous Version | Graphics & Text | Print | Product List | Glossary On
Versions: 1 2 3 4 5 6 7 8 9 10 11 12 13 14 15 16 17 18 19 20 21 22 23 24 25 26 27 28 29 30 31 32 33 34 35 36 37 38 39 40 41 42 43 44 45 46 47 48 49 50
000
ASUS43 KMKX 041500
RWRWI

WISCONSIN REGIONAL WEATHER ROUNDUP
NATIONAL WEATHER SERVICE MILWAUKEE/SULLIVAN WI
1000 AM CDT TUE AUG 04 2015

NOTE: "FAIR" INDICATES FEW OR NO CLOUDS BELOW 12,000 FEET WITH NO
SIGNIFICANT WEATHER AND/OR OBSTRUCTIONS TO VISIBILITY.

WIZ001-002-006>008-014>016-023>028-041600-
NORTHWEST WISCONSIN

CITY           SKY/WX    TMP DP  RH WIND       PRES   REMARKS
SUPERIOR ARPT  SUNNY     67  55  63 W3        29.97S
ASHLAND        MOSUNNY   67  54  63 CALM      29.97R
HAYWARD        SUNNY     67  51  56 VRB5      29.99S
SIREN          SUNNY     65  53  65 W5        30.01S
CUMBERLAND     SUNNY     64  54  68 W5        30.01S
RICE LAKE      SUNNY     67  55  65 W6        30.03R
CHETEK         SUNNY     68  56  65 W5        30.01S
LADYSMITH      SUNNY     67  55  64 W7        30.02R
EAU CLAIRE     SUNNY     70  55  59 W12       30.00S
MENOMONIE      SUNNY     70  55  58 SW12      30.01S
NEW RICHMOND   SUNNY     68  54  60 W7        30.02S
OSCEOLA        SUNNY     67  56  67 NW6       30.04S
$$

WIZ003>005-009-010-017-018-041600-
NORTH CENTRAL WISCONSIN

CITY           SKY/WX    TMP DP  RH WIND       PRES   REMARKS
MANITOWISH WTR PTSUNNY   62  55  77 NW8       29.97R
ARBOR VITAE    MOSUNNY   64  55  72 NW8       29.96R
WOODRUFF       MOSUNNY   64  55  72 NW8       29.96R
RHINELANDER    SUNNY     66  51  58 NW10      29.98R
EAGLE RIVER    PTSUNNY   61  54  75 NW8       29.96R
LAND O LAKES   PTSUNNY   62  55  77 W6        29.96R
PHILLIPS       MOSUNNY   65  54  68 W7        29.99R
TOMAHAWK       SUNNY     65  53  65 W8        29.98R
MEDFORD        SUNNY     65  52  62 W12       30.00R
MERRILL        NOT AVBL
$$

WIZ029-030-035-036-043>047-041600-
CENTRAL WISCONSIN

CITY           SKY/WX    TMP DP  RH WIND       PRES   REMARKS
WAUSAU         SUNNY     70  52  52 NW12      29.97R
MOSINEE        SUNNY     68  54  60 NW12      29.99S
MARSHFIELD     SUNNY     71  51  49 NW12      29.99F
STEVENS POINT  SUNNY     66  52  60 NW7       29.98F
WAUPACA        SUNNY     72  53  51 NW9       29.97S
WAUTOMA        NOT AVBL
WISC RAPIDS    SUNNY     72  50  45 NW10      29.99F
CAMP DOUGLAS   NOT AVBL
$$

WIZ011>013-019>022-031-037>040-048>050-041600-
NORTHEAST WISCONSIN

CITY           SKY/WX    TMP DP  RH WIND       PRES   REMARKS
ANTIGO         MOSUNNY   66  53  63 NW12G17   29.96S
SHAWANO        SUNNY     70  56  61 W7        29.95S
OCONTO         CLOUDY    66  57  71 NW6       29.93R
STURGEON BAY   CLOUDY    63  55  77 W5        29.96R
GREEN BAY      SUNNY     70  57  63 W9        29.95R
MANITOWOC      MOSUNNY   70  55  60 MISG      29.94S
APPLETON       MOSUNNY   68  52  56 W12       29.96S
CLINTONVILLE   SUNNY     70  52  52 NW9       29.95S
OSHKOSH        SUNNY     70  56  61 NW10      29.95S
$$

WIZ032>034-041-042-053>061-041600-
SOUTHWEST WISCONSIN

CITY           SKY/WX    TMP DP  RH WIND       PRES   REMARKS
LA CROSSE      SUNNY     73  54  51 NW3       30.00F
SPARTA         SUNNY     69  52  54 W3        30.01F
VIROQUA        SUNNY     68  55  61 NW3       30.03S
BOSCOBEL       MOSUNNY   73  57  57 VRB3      30.02R
PRAIRIE DU CHI MOSUNNY   69  53  57 CALM      30.02S
PLATTEVILLE    MOSUNNY   69  59  68 NW3       30.02S
$$

WIZ056-057-062-063-064-067-068-041600-
SOUTH CENTRAL WISCONSIN

CITY           SKY/WX    TMP DP  RH WIND       PRES   REMARKS
REEDSBURG      SUNNY     70  55  57 N6        30.00R
BARABOO/DELLS  SUNNY     70  49  47 NW9       30.00R
LONE ROCK      NOT AVBL
MINERAL POINT  MOSUNNY   70  55  60 NW5       30.02S
MADISON        PTSUNNY   72  56  57 NW7       29.99R
MIDDLETON      SUNNY     72  54  53 NW9       30.00S
WATERTOWN      SUNNY     69  58  69 NW8       29.96S
MONROE         SUNNY     68  55  64 NW8       30.00S
JANESVILLE     SUNNY     73  55  53 NW8       29.98R
$$

WIZ051-052-058>065-066-070>072-041600-
SOUTHEAST WISCONSIN

CITY           SKY/WX    TMP DP  RH WIND       PRES   REMARKS
MILWAUKEE      MOSUNNY   76  52  43 W15       29.95S
WAUKESHA       SUNNY     70  54  56 W9        29.98R
MILWAUKEE/TIMM SUNNY     73  52  46 W9        29.96R
RACINE         SUNNY     75  54  47 W8        29.97S
BURLINGTON     SUNNY     73  52  48 W8        29.97S
KENOSHA        SUNNY     74  59  59 W10       29.97S
FOND DU LAC    SUNNY     71  58  63 NW10      29.96S
SHEBOYGAN      SUNNY     71  59  65 NW10      29.94S
WEST BEND      MOSUNNY   68  54  60 W8        29.96R
JUNEAU         SUNNY     67  56  66 NW10      29.97F
$$

LSZ147-162-041600-
LAKE SUPERIOR

STATION/POSITION TIME  TEMP    WIND        PRES    WAVE
                       AIR SEA DIR/SP/G            HT/PER
                 (UTC) (F)     (DEG/KT/KT) (MB)    (FT/S)
W MID LAKE BUOY  1350   56 56  320/  8/ 10 1013.3R   1
DEVILS ISLAND    1400   57     250/  5/  7 1014.2R
PORT WING        1440   60     280/  8/  9 1015.2R
SAXON HARBOR     1440   64     320/  7     1014.2R
$$

LMZ867-665-643>646-041600-
LAKE MICHIGAN

STATION/POSITION TIME  TEMP    WIND        PRES    WAVE
                       AIR SEA DIR/SP/G            HT/PER
                 (UTC) (F)     (DEG/KT/KT) (MB)    (FT/S)
CHAMBERS ISLAND  1400   64     300/  4/  7 1013.2R
S GREEN BAY BUOY 1400   64 71  320/  8/ 10 1014.8
N MID LAKE BUOY  1350   62 68  320/  8/  8 1012.2R   1/ 3
NORTHPORT PIER   1400   64     320/  9/ 10 1012.5R
SISTER BAY       1418   66     350/ 11/ 12   N/A
ALGOMA LAKESHORE 1312          300/  9/ 11   N/A
KEWAUNEE LAKESHO 1400   66     320/  3/  6 1013.0R
SHEBOYGAN LAKESH 1400   67     270/ 10/ 11 1013.9R
PORT WASHINGTON  1400   72     290/  7/ 10 1014.2S
ATWATER BUOY     1400   67 53  270/  4/  4 1015.3R
MILWAUKEE LAKESH 1400   72     260/  9/ 12   N/A
KENOSHA   LAKESH 1400   72     270/  8/ 13 1014.2S
$$

TC  - TEMPERATURE IN CELSIUS
VSB - VISIBILITY IN STATUTE MILES
WCI - WIND CHILL INDEX
HX  - HEAT INDEX




USA.gov is the U.S. government's official web portal to all federal, state and local government web resources and services.